Tracking 19709 objects as of 17-Jun-2019
HD Live streaming from Space Station
objects crossing your sky now

THORAD AGENA D DEB

Track THORAD AGENA D DEB now!
10-day predictions


NORAD ID: 5165
Int'l Code: 1970-025JY
Perigee: 576.3 km
Apogee: 594.6 km
Inclination: 99.7 °
Period: 96.2 minutes
Semi major axis: 6956 km
RCS: 0.0499 m2 (small)
Launch date: April 8, 1970
Source: United States (US)
Launch site: AIR FORCE WESTERN TEST RANGE (AFWTR)

Note: This is SATELLITE DEBRIS
aabbcc
Your satellite tracking list
Your tracking list is empty




NASA's NSSDC Master Catalog

Two Line Element Set (TLE):
1  5165U 70025JY  19168.19239431  .00002893  00000-0  26305-3 0  9999
2  5165  99.7008  71.1442 0013145 336.4582  23.6030 14.96298107536090
Source of the keplerian elements: AFSPC